Regional Weather Roundup
Issued by NWS

Home | Current Version | Previous Version | Graphics & Text | Print | Product List | Glossary On
Versions: 1 2 3 4 5 6 7 8 9 10 11 12 13 14 15 16 17 18 19 20 21 22 23 24 25 26 27
000
ASUS45 KTFX 231110
RWRMT
MONTANA REGIONAL WEATHER ROUNDUP
NATIONAL WEATHER SERVICE GREAT FALLS MT
500 AM MDT SAT JUL 23 2016

NOTE: "FAIR" INDICATES FEW OR NO CLOUDS BELOW 12000 FEET WITH NO
SIGNIFICANT WEATHER AND/OR OBSTRUCTIONS TO VISIBILITY.

MTZ001>007-043-231200-
WEST OF THE DIVIDE

CITY           SKY/WX    TMP DP  RH WIND       PRES   REMARKS
KALISPELL      MOCLDY    53  47  79 VRB5      30.12R
MISSOULA       PTCLDY    58  46  64 SW7       30.15F
BUTTE          CLEAR     52  38  58 NW5       30.22R
MULLAN PASS    CLEAR     46  41  82 VRB3      30.23F
ANACONDA         N/A     55  37  50 CALM      30.19F
DEER LODGE       N/A     52  39  62 N3        30.21R
EUREKA           N/A     54  46  76 SE6       30.11S
HAMILTON         N/A     57  41  54 CALM      30.17S
LIBBY            N/A     46  45  93 CALM      30.14S
PLAINS           N/A     52  48  86 CALM      30.15S
RONAN            N/A     54  48  80 CALM      30.18S
$$

MTZ008-052>055-231200-
SOUTHWEST MONTANA

CITY           SKY/WX    TMP DP  RH WIND       PRES   REMARKS
BOZEMAN        CLEAR     50  44  80 CALM      30.15S
DILLON         CLEAR     55  41  59 S9        30.18R
W YELLOWSTONE  CLEAR     41  25  52 CALM      30.24S
ENNIS          CLEAR     48  39  71 SE5       30.23R
THREE FORKS      N/A     49  36  61 CALM      30.13R
TWIN BRIDGES     N/A     63  37  37 W13       30.14S
$$

MTZ009-010-012-014-046-048-049-054-231200-
EAST SLOPES AND CENTRAL MONTANA

CITY           SKY/WX    TMP DP  RH WIND       PRES   REMARKS
CUT BANK       CLEAR     58  42  55 W24G32    29.95F
GREAT FALLS    CLEAR     58  41  53 SW15      30.02S
MALMSTROM AFB  CLEAR     62  42  47 SW20G25   30.01S
HELENA         PTCLDY    63  39  41 SW13      30.11F
CHOTEAU          N/A     61  39  44 W8G20     30.03R
$$

MTZ011-013-016-021-045-047-050-051-231200-
NORTH CENTRAL MONTANA

CITY           SKY/WX    TMP DP  RH WIND       PRES   REMARKS
HAVRE            N/A    N/A N/A N/A MISG      29.88R
LEWISTOWN      CLEAR     56  43  61 W12       30.01F
N BAR RANCH      N/A     55  39  54 W8G15     30.03S
CHINOOK          N/A     61  45  55 SW6       29.88F
$$

MTZ017>020-022>027-061-062-231200-
NORTHEAST MONTANA

CITY           SKY/WX    TMP DP  RH WIND       PRES   REMARKS
GLASGOW        CLOUDY    62  54  74 W10       29.84S
JORDAN           N/A     56  52  86 W7        29.91S
SIDNEY         PTCLDY    65  62  90 S6        29.83F
WOLF POINT     CLEAR     67  60  78 SW8       29.83S
PLENTYWOOD       N/A     68  63  83 S17G24    29.81F
POPLAR           N/A     70  63  78 SW7       29.83S
SCOBEY           N/A     67  61  81 S5        29.82S
$$

MTZ028>42-056>058-231200-
SOUTHCENTRAL AND SOUTHEAST MONTANA

CITY           SKY/WX    TMP DP  RH WIND       PRES   REMARKS
BAKER          CLEAR     63  61  93 NE8       29.84S
BILLINGS       PTCLDY    64  43  46 CALM      30.04R
LIVINGSTON     MOCLDY    62  40  44 NW8G22    30.12R
MILES CITY     CLEAR     68  53  58 NW12      29.89R
FORSYTH          N/A     66  50  55 W10       29.93R
LAUREL           N/A     62  42  47 N3        30.03S
ROUNDUP          N/A     58  45  62 SW3       29.92F
$$

REGIONAL REPORTS...DAKOTAS

CITY           SKY/WX    TMP DP  RH WIND       PRES   REMARKS
WILLISTON      PTCLDY    69  62  78 SW10      29.80R
MINOT          CLOUDY    69  63  81 S13       29.77F
DICKINSON      CLOUDY    64  60  87 E7        29.83R
BEACH            N/A     61  61 100 E3        29.87S
CROSBY         LGT RAIN  64  64 100 CALM      29.83R
WATFORD CITY     N/A    N/A N/A N/A MISG        N/A
BISMARCK       CLOUDY    70  63  78 NE9       29.82F
GRAND FORKS    CLOUDY    71  62  73 S6        29.87R
FARGO          CLOUDY    76  61  59 SE10      29.86R
BUFFALO SD       N/A     66  60  81 S6        29.75F
RAPID CITY     CLOUDY    67  56  67 SW7       29.83F
$$

REGIONAL REPORTS...WYOMING/IDAHO/WASHINGTON

CITY           SKY/WX    TMP DP  RH WIND       PRES   REMARKS
GILLETTE       CLEAR     65  49  56 NW18G26   29.98R
SHERIDAN       CLEAR     67  41  38 NW9       30.06R
BUFFALO WY     CLEAR     68  37  32 NW25G41   30.08R
CODY           CLEAR     63  39  42 NW9       30.11R
YELLOWSTONE LA   N/A     39  25  57 NW3       30.31S
IDAHO FALLS    CLEAR     56  38  50 SW7       30.15R
SALMON         CLEAR     57  39  51 CALM      30.17R
BOISE          CLEAR     61  41  47 W6        30.12R
SPOKANE        MOCLDY    52  46  80 S7        30.13S
$$

REGIONAL REPORTS...ALBERTA

CITY           SKY/WX    TMP DP  RH WIND       PRES   REMARKS
EDMONTON       CLOUDY    59  54  82 W6        29.89S
CALGARY        PTCLDY    54  48  82 N9        29.98R
LETHBRIDGE     CLEAR     61  46  59 W24G35    29.92R
MEDICINE HAT   CLEAR     54  48  82 SW12G18   29.79F
$$

REGIONAL REPORTS...SASKATCHEWAN

CITY           SKY/WX    TMP DP  RH WIND       PRES   REMARKS
SWIFT CURRENT  CLOUDY    57  57 100 W16G23    29.77R
REGINA         CLOUDY    63  59  88 SE18G25   29.72F
SASKATOON      MOCLDY    63  63 100 NE9       29.75F
$$




USA.gov is the U.S. government's official web portal to all federal, state and local government web resources and services.